Погода в Урицком

Россия / Липецкая область     52°01′39″N   38°11′30″E
темп.,
°C
ветер,
м/с
пор.,
м/с
влажн.,
%
обл.,
%
осадки,
мм/ч
давл.,
гПа
погр.,
м
6 марта, сб
сб600:00−7зсз239595 0.0 101633
03:00−8сз229398 0.0 101722
06:00−9сз2394100 0.0 101626
09:00−7сз2494100 0.0 1017144
12:00−5зсз3593100 0.1 1018332
15:00−6сз579293 0.1 1017436
18:00−6сз4109297 0.1 1018387
21:00−11зсз349157 0.1 101970
7 марта, вс
вс700:00−11з46900 0.0 1020112
03:00−12зюз47880 0.0 1019139
06:00−11юз512900 0.0 1017267
09:00−7юз8158543 0.0 1015728
12:00−4юз101777100 0.0 1010976
15:00−2зюз111982100 0.0 10061268
18:00−2зюз111892100 0.3 10031107
21:00−5сз31388100 1.7 1005682
8 марта, пн
пн800:00−6юз3593100 0.1 1004138
03:00−6ююз4696100 0.6 1003200
06:00−6юз5129386 0.1 1001318
09:00−6з9158684 0.1 10021177
12:00−8з9148028 0.0 1005952
15:00−7зсз8128257 0.1 10081013
18:00−9з5128698 0.0 1010435
21:00−11з5118849 0.0 1012235
9 марта, вт
вт900:00−12з49900 0.0 1013185
03:00−13з36940 0.0 1013123
06:00−12з359696 0.1 1014140
09:00−10зсз359598 0.3 1015236
12:00−9сз4689100 0.1 1017582
15:00−9сз5787100 0.1 1018737
18:00−12сз4892100 0.1 1020289
21:00−15зсз349477 0.1 102263
10 марта, ср
ср1000:00−15з35920 0.0 102384
03:00−14зюз511929 0.0 1021224
06:00−12з6129095 0.0 1020329
09:00−10з7138696 0.0 1020386
12:00−7з71279100 0.0 1020487
15:00−5з61180100 0.0 1019745
18:00−7зюз41187100 0.0 1018369
21:00−8зюз5128997 0.0 1019310